Location: Javierrelatre
(42.4066°N, 0.5361°W)
Time: 22:49:04
(UTC+00:00)

Daily predictions for brighter satellites

Satellite Brightness Start Highest point End
(mag) Time Altitude Azimuth Time Altitude Azimuth Time Altitude Azimuth
Cosmos 540 Rocket 3.5 17:57:31 10° NNW 18:02:39 89° WSW 18:07:45 10° SSE
Cosmos 1674 Rocket 4.2 18:00:11 10° N 18:04:16 36° ENE 18:08:21 10° SE
YAOGAN 1 3.6 18:01:49 10° SE 18:05:23 26° ENE 18:08:59 10° NNE
Cosmos 968 Rocket 4.4 18:01:52 10° SSE 18:06:11 27° E 18:10:31 10° NE
Okean O Rocket 2.7 18:05:48 10° ESE 18:09:16 24° ENE 18:12:48 10° NNE
Lacrosse 4 Rocket 3.1 18:09:11 10° SE 18:10:58 13° ESE 18:12:46 10° ENE
USA 229 DEB 4.3 18:04:55 10° NW 18:12:22 73° WSW 18:20:16 10° SSE
USA 229 4.3 18:05:01 10° NW 18:12:28 74° WSW 18:20:22 10° SSE
Nadezhda 4 Rocket 4.4 18:07:47 10° SSE 18:13:39 42° E 18:19:31 10° NNE
SKYMED 2 3.6 18:11:18 10° NNE 18:15:40 88° E 18:20:00 10° SSW
Cosmos 2227 Rocket 4.3 18:12:50 10° NW 18:17:47 32° WSW 18:22:43 10° SSW
PSLV R/B 3.6 18:17:47 10° SSE 18:21:26 65° ENE 18:25:04 10° N
Cosmos 1726 2.0 18:18:21 10° S 18:21:56 60° E 18:25:32 10° NNE
Cosmos 2322 Rocket 3.2 18:17:31 10° SSE 18:21:57 24° ESE 18:26:26 10° NE
Cosmos 2285 Rocket 4.4 18:16:43 10° N 18:22:46 44° ENE 18:28:48 10° SE
CZ-4 R/B 4.4 18:20:40 10° SSE 18:24:46 88° ENE 18:28:54 10° NNW
Cosmos 1470 4.0 18:23:53 10° SE 18:26:44 20° E 18:29:36 10° NE
CZ-4B R/B 3.3 18:22:24 10° SSE 18:27:38 55° ENE 18:32:59 10° N
Cosmos 1980 Rocket 3.0 18:22:16 10° SW 18:27:48 56° WNW 18:33:20 10° NNE
Cosmos 841 Rocket 3.6 18:24:16 10° NNW 18:29:27 81° WSW 18:34:35 10° SSE
Cosmos 1378 Rocket 3.5 18:26:31 10° N 18:30:53 69° E 18:35:11 10° SSE
Timation 2 Rocket 4.0 18:26:03 10° NNW 18:32:30 85° ENE 18:38:37 10° SSE
ARGOS Delta rocket 3.9 18:27:49 10° NNE 18:33:01 69° E 18:37:54 10° S
Cosmos 2292 Rocket 4.2 18:31:45 10° SSE 18:36:44 39° E 18:40:37 10° NNE
Meteor 2-14 Rocket 4.4 18:32:24 10° S 18:38:28 85° E 18:44:33 10° N
Cosmos 1733 Rocket 4.2 18:36:35 10° SSW 18:40:52 49° WNW 18:45:12 10° N
USA 215 4.1 18:39:32 10° NE 18:45:46 49° NNW 18:51:59 10° WSW
COBE Rocket 3.8 18:40:56 10° SSE 18:45:47 83° E 18:50:33 10° N
Cosmos 2221 Rocket 4.5 18:44:27 10° NNW 18:48:54 54° W 18:53:19 10° S
Cosmos 1844 Rocket 3.7 18:45:53 10° N 18:50:42 27° NE 18:52:59 21° E
Cosmos 2278 4.1 18:45:32 10° SSW 18:51:11 67° WNW 18:56:51 10° NNE
SL-16 R/B 2.2 18:46:24 10° S 18:51:58 61° ESE 18:57:33 10° NNE
Cosmos 1092 Rocket 4.2 18:49:05 10° SSE 18:55:06 50° E 19:01:07 10° NNE
Cosmos 1570 Rocket 4.0 18:51:09 10° NNW 18:56:22 60° ENE 19:00:57 13° SE
Landsat 5 4.3 18:53:27 10° NNE 18:57:28 32° E 19:01:24 10° SSE
Meteor 2-21 Rocket 4.4 18:55:07 10° S 19:01:11 89° E 19:07:16 10° N
SJ-6B 3.8 19:02:07 26° ENE 19:02:07 26° ENE 19:04:59 10° NNE
DMSP B5D1-3 4.4 18:57:49 10° NNE 19:02:57 81° ESE 19:08:04 10° SSW
HJ-1C 3.3 18:59:52 10° S 19:02:58 72° W 19:06:05 10° NNW
Cosmos 1437 Rocket 2.5 19:00:31 10° S 19:04:15 89° E 19:08:00 10° N
Cosmos 2263 Rocket 3.1 19:04:34 10° NW 19:10:02 49° WSW 19:15:29 10° S
Meteor 1-24 Rocket 3.6 19:06:44 10° N 19:12:00 59° ENE 19:16:12 16° SSE
Meteor 2-16 Rocket 4.5 19:09:00 10° S 19:15:08 85° W 19:21:20 10° N
OAO 2 Rocket 4.2 19:11:05 10° WSW 19:15:29 34° S 19:17:05 27° SSE
Feng Yun 1-1 Rocket 4.1 19:10:04 10° SSE 19:15:33 87° ENE 19:21:00 10° NNW
SL-4 R/B 2.2 19:11:35 10° WNW 19:16:06 83° SW 19:17:51 38° SE
Cosmos 2084 Rocket 3.5 19:16:01 10° NNW 19:19:44 45° NE 19:19:51 45° NE
USA 267 3.5 19:14:26 16° SE 19:19:47 67° SW 19:26:19 10° NW
Okean-O 3.0 19:20:29 41° ENE 19:20:31 41° ENE 19:24:41 10° N
Cosmos 1486 Rocket 4.2 19:16:23 10° S 19:21:28 49° ESE 19:26:36 10° NNE
CZ-4 R/B 1.8 19:17:37 10° S 19:21:46 66° W 19:25:56 10° NNW
OBJECT-B 3.2 19:24:56 11° N 19:24:56 11° N 19:25:00 10° N
ISS -1.7 19:20:25 10° W 19:23:08 23° SW 19:24:26 18° SSW
IGS 5A 3.7 19:24:37 47° ENE 19:24:37 47° ENE 19:28:22 10° N
Cosmos 2208 Rocket 4.0 19:19:38 10° NNW 19:25:03 84° ENE 19:28:16 26° SSE
Cosmos 1844 4.1 19:20:09 10° NNW 19:25:24 41° ENE 19:26:13 38° E
DNEPR-1 R/B 3.7 19:21:03 10° SSW 19:25:34 74° ESE 19:30:36 12° NE
Meteor 1-22 Rocket 4.1 19:21:08 10° S 19:26:32 86° W 19:32:10 10° N
Cosmos 2333 Rocket 4.0 19:23:15 10° SSE 19:24:21 15° SSE 19:24:21 15° SSE
Cosmos 1300 Rocket 4.1 19:30:15 40° NE 19:30:15 40° NE 19:33:19 10° NNE
CSL-04 Debris 4.1 19:28:02 32° SSE 19:30:35 68° ENE 19:35:58 10° N
Cosmos 1428 Rocket 4.4 19:24:29 10° S 19:30:40 88° W 19:36:58 10° N
Cosmos 1627 Rocket 4.4 19:28:03 10° S 19:34:09 89° E 19:40:19 10° N
Cosmos 2360 Rocket 2.1 19:30:55 10° S 19:36:29 65° ESE 19:42:04 10° NNE
Cosmos 1782 Rocket 3.8 19:33:07 10° SSW 19:37:25 66° W 19:41:47 10° N
USA 81 3.9 19:35:25 10° N 19:40:43 86° E 19:43:22 31° S
Cosmos 1025 Rocket 2.9 19:40:21 10° N 19:44:41 87° W 19:44:51 83° SSW
Okean O Rocket 3.3 19:41:33 10° SSW 19:45:27 32° W 19:49:24 10° NNW
Lacrosse 4 Rocket 1.9 19:45:01 10° SW 19:49:01 57° WNW 19:50:17 39° N
Cosmos 2026 Rocket 4.1 19:44:43 10° SSW 19:50:44 70° W 19:56:49 10° N
USA 186 3.8 19:55:50 27° NNW 19:55:50 27° NNW 19:57:35 10° NNW
CSL-04 Rocket 3.6 19:55:05 50° S 19:56:31 81° WSW 20:01:57 10° NNW
Landsat 7 4.2 20:04:05 55° N 20:04:05 55° N 20:07:47 10° NNW
Cosmos 1553 Rocket 3.9 19:59:11 10° N 20:05:35 83° E 20:06:34 66° SSE
Cosmos 2322 Rocket 3.0 20:00:06 10° SW 20:05:37 50° WNW 20:11:12 10° NNE
Cosmos 1975 Rocket 4.1 20:05:44 10° NNW 20:09:54 42° W 20:10:19 41° WSW
NOSS 3-3 (A) 3.9 20:13:53 10° SW 20:19:24 74° NW 20:20:03 67° N
NOSS 3-3 (C) 3.8 20:13:59 10° SW 20:19:30 75° NW 20:19:58 71° N
Aureole 1 Rocket 4.1 20:15:51 10° SSW 20:23:29 85° WNW 20:29:34 10° NNE
Cosmos 1844 Rocket 3.4 20:29:22 10° NW 20:34:40 48° WSW 20:34:40 48° WSW
Resurs 01 Rocket 4.0 20:38:53 18° NNW 20:38:53 18° NNW 20:40:03 10° NNW
SL-16 R/B 4.4 20:32:05 10° WSW 20:36:29 23° NW 20:40:56 10° N
Cosmos 2278 Rocket 4.2 20:45:39 10° N 20:47:32 19° N 20:47:32 19° N
Cosmos 2360 Rocket 4.4 21:16:43 10° W 21:20:58 21° NW 21:25:14 10° N
ATLAS 2AS CENTAUR R/B 4.5 21:45:49 10° NNW 21:49:00 24° N 21:49:00 24° N
